SCP
1 0 0 0 0 0 0 0 0 0 0 0 0 0 0 0 0 0 1 1 1 1 1 1 1 1 1 0 0 0 0 0 0 0 0 0 0 0 0 0 0 0 0 0 0 0 0 0 0
1 1 0 0 0 0 0 0 0 0 0 0 0 0 0 0 0 1 1 1 1 1 1 1 1 1 1 1 0 0 0 0 0 0 0 0 0 0 0 0 0 0 0 0 0 0 0 0 0
1 1 0 0 0 0 0 0 0 0 0 0 0 0 0 1 1 1 1 1 1 1 1 1 1 1 1 1 0 0 0 0 0 0 0 0 0 0 0 0 0 0 0 0 0 0 0 0 0
1 1 0 0 0 0 0 0 0 0 0 0 0 1 1 1 1 1 1 1 1 1 1 2 2 1 1 1 0 0 0 0 0 0 0 0 0 0 0 0 0 0 0 0 0 0 0 0 0
1 0 0 0 0 0 0 0 0 0 0 0 0 1 1 1 1 1 1 1 1 1 2 2 2 2 1 1 1 0 0 0 0 0 0 0 0 0 0 0 0 0 0 0 0 0 0 0 0
0 0 0 0 0 0 0 0 0 0 0 0 0 1 1 1 1 1 1 1 1 1 2 2 2 2 1 1 1 0 0 0 0 0 0 0 0 0 0 0 0 0 0 0 0 0 0 0 0
0 0 0 0 0 0 0 0 0 0 0 0 0 1 1 1 1 2 1 1 1 2 2 2 2 1 1 1 1 0 0 0 0 0 0 0 0 0 0 0 0 0 0 0 0 0 0 0 0
0 0 0 0 0 0 0 0 0 0 0 0 0 1 1 1 2 2 2 2 1 2 2 2 1 1 1 1 1 1 0 0 0 0 0 0 0 0 0 0 0 0 0 0 0 0 0 0 0
1 0 0 0 0 0 0 0 0 0 0 1 1 1 1 2 2 3 2 2 1 1 2 1 1 1 1 1 1 1 0 0 0 0 0 0 0 0 0 0 0 0 0 0 0 0 0 0 0
0 0 0 0 0 0 0 0 0 0 0 1 2 2 2 2 3 3 2 2 1 1 1 1 1 1 1 1 1 1 1 0 0 0 0 0 0 0 0 0 0 0 0 0 0 0 0 0 0
0 0 0 0 0 0 0 0 0 0 0 1 2 2 2 3 2 2 2 2 1 1 1 1 1 1 1 1 1 1 1 0 0 0 0 0 0 0 0 0 0 0 0 0 0 0 0 0 0
0 0 0 0 0 0 0 0 0 0 0 1 1 2 2 2 2 2 2 2 1 1 1 1 1 1 1 1 1 1 1 0 0 0 0 0 0 0 0 0 0 0 0 0 0 0 0 0 0
0 0 0 0 0 0 0 0 0 0 0 1 2 2 2 2 2 2 2 1 1 1 1 1 1 1 1 1 1 1 1 0 0 0 0 0 0 0 0 0 0 0 0 0 0 0 0 0 0
0 0 0 0 0 0 0 0 0 0 0 1 2 2 2 2 2 1 1 1 1 1 1 1 1 1 1 1 1 1 1 1 0 0 0 0 0 0 0 0 0 0 0 0 0 0 0 0 0
0 0 0 0 0 0 0 0 0 0 0 1 1 1 1 2 2 1 1 1 1 1 1 1 1 1 1 1 1 1 1 1 0 0 0 0 0 0 0 0 0 0 0 0 0 0 0 0 0
0 0 0 0 0 0 0 0 0 0 0 0 0 1 1 1 1 1 1 1 1 1 1 1 1 1 1 1 1 1 1 0 0 0 0 0 0 0 0 0 0 0 0 0 0 0 0 0 0
0 0 0 0 0 0 0 0 0 0 0 0 0 0 0 1 1 1 1 1 1 1 1 1 1 1 1 1 1 1 0 0 0 0 0 0 0 0 0 0 0 0 0 0 0 0 0 0 0
0 0 0 0 0 0 0 0 0 0 0 0 0 0 0 0 0 1 1 1 1 1 1 1 1 1 1 1 1 1 1 0 0 0 0 0 0 0 0 0 0 0 0 0 0 0 0 0 0
0 0 0 0 0 0 0 0 0 0 0 0 0 0 0 0 0 0 1 1 1 1 1 1 1 1 1 1 1 1 1 1 0 0 0 0 0 0 0 0 0 0 0 0 0 0 0 0 0
0 0 0 0 0 0 0 0 0 0 0 0 0 0 0 0 0 0 0 1 1 1 1 1 1 1 1 1 1 1 1 1 1 1 1 1 0 0 0 0 0 0 0 0 0 0 0 0 0
0 0 0 0 0 0 0 0 0 0 0 0 0 0 0 0 0 0 0 1 1 2 2 1 1 1 1 1 1 1 1 1 1 1 1 1 1 0 0 0 0 0 0 0 0 0 0 0 0
0 0 0 0 0 0 0 0 0 0 0 0 0 0 0 0 0 0 0 0 1 2 2 2 2 2 1 1 2 2 1 1 1 1 1 1 1 1 1 1 1 0 0 0 0 0 0 0 0
0 0 0 0 0 0 0 0 0 0 0 0 0 0 0 0 0 0 0 0 1 1 2 2 2 2 2 1 1 1 1 1 1 1 1 1 1 1 1 1 1 1 1 1 0 0 0 0 0
0 0 0 0 0 0 0 0 0 0 0 0 0 0 0 0 0 0 0 0 0 1 1 1 1 1 1 1 1 1 1 1 1 1 1 1 1 1 1 1 1 1 1 1 1 0 0 0 0
0 0 0 0 0 0 0 0 0 0 0 0 0 0 0 0 0 0 0 0 0 0 0 0 0 0 0 1 1 1 1 1 1 1 1 1 1 1 1 1 1 1 1 1 1 1 0 0 0
0 0 0 0 0 0 0 0 0 0 0 0 0 0 0 0 0 0 0 0 0 0 0 0 0 0 0 0 0 0 0 1 1 1 1 1 1 1 1 1 1 1 1 1 1 1 1 1 1
0 0 0 0 0 0 0 0 0 0 0 0 0 0 0 0 0 0 0 0 0 0 0 0 0 0 0 0 0 0 0 0 0 0 0 0 0 0 0 0 0 1 1 1 1 1 1 1 1
0 0 0 0 0 0 0 0 0 0 0 0 0 0 0 0 0 0 0 0 0 0 0 0 0 0 0 0 0 0 0 0 0 0 0 0 0 0 0 0 0 0 0 0 0 1 1 0 0
0 0 0 0 0 0 0 0 0 0 0 0 0 0 0 0 0 0 0 0 0 0 0 0 0 0 0 0 0 0 0 0 0 0 0 0 0 0 0 0 0 0 0 0 0 0 0 0 0
0 0 0 0 0 0 0 0 0 0 0 0 0 0 0 0 0 0 0 0 0 0 0 0 0 0 0 0 0 0 0 0 0 0 0 0 0 0 0 0 0 0 0 0 0 0 0 0 0
Wind_Speed
4 2 3 4 6 4 4 6 4 3 2 2 2 6 7 4 3 4 2 11 15 14 12 15 16 16 16 16 16 15 14 14 13 13 12 11 10 10 10 11 11 12 13 14 14 13 13 13 13
1 1 4 5 5 2 6 6 5 5 5 2 2 5 6 3 2 6 5 11 18 16 12 13 16 17 17 17 16 15 15 14 13 12 11 11 10 10 11 11 12 13 14 14 13 13 12 11 11
1 1 4 4 4 6 6 4 4 5 5 2 2 4 5 4 3 5 8 14 15 13 10 13 16 17 17 17 16 15 15 14 13 12 11 10 10 10 12 12 13 13 14 13 13 12 11 10 10
2 3 4 3 6 7 6 4 3 5 5 2 3 5 3 1 3 7 14 15 14 10 9 12 16 17 17 16 16 16 15 14 13 12 11 10 10 11 12 12 13 13 13 13 12 11 10 9 8
3 4 3 2 6 7 6 6 4 4 3 2 3 5 2 5 6 15 15 15 14 11 9 12 16 17 17 16 16 15 15 14 13 12 11 11 11 12 13 13 13 12 13 12 11 10 9 8 7
3 4 4 7 8 7 6 5 3 4 3 2 3 5 1 2 7 12 14 14 14 13 10 11 16 16 16 16 15 15 14 13 12 12 11 11 12 12 12 12 12 12 12 12 11 9 8 6 5
4 6 7 8 8 9 10 5 3 4 4 3 3 5 2 1 5 10 12 13 12 12 10 8 10 12 14 14 14 14 13 12 11 11 11 10 10 11 11 11 12 12 11 11 10 9 7 6 4
4 5 6 7 8 11 8 5 5 5 6 2 4 8 6 4 6 11 12 11 11 10 10 9 8 8 9 10 13 13 12 11 10 10 10 9 9 9 9 8 10 10 11 10 9 8 7 5 3
3 4 9 10 10 8 5 6 8 4 3 1 1 4 6 9 11 13 11 10 10 10 9 9 8 8 8 8 10 11 11 11 10 9 10 8 5 5 5 6 8 9 9 9 9 8 7 4 3
4 6 10 7 7 4 3 5 5 3 2 0 3 3 6 9 12 13 13 12 11 12 10 8 8 8 8 7 6 5 5 6 5 5 6 4 4 3 4 6 8 8 8 8 8 7 6 3 1
6 7 4 3 3 2 3 6 4 3 4 5 8 9 7 9 10 11 10 10 11 11 10 9 9 8 8 5 5 4 3 4 5 6 6 4 4 3 3 2 4 4 5 3 4 4 2 2 2
5 4 4 3 2 2 3 5 4 4 5 5 10 11 8 10 11 11 11 10 10 10 10 10 9 8 8 7 6 5 4 4 4 5 6 4 3 3 3 3 3 3 2 3 3 2 3 3 4
5 4 5 3 3 4 3 3 4 4 3 1 7 8 9 9 8 7 8 9 9 9 9 10 10 10 8 7 6 6 5 5 5 5 6 6 4 5 4 4 4 4 3 4 4 4 4 4 5
5 4 3 3 3 3 4 3 2 4 1 3 6 7 7 8 8 6 7 7 7 8 9 8 9 10 9 7 6 6 6 6 6 5 7 8 6 6 6 5 5 5 4 4 5 5 5 4 4
3 3 3 5 5 4 4 5 7 5 1 1 3 4 5 6 6 8 9 8 8 7 7 7 8 8 9 8 7 6 6 6 6 6 7 8 7 7 7 6 6 6 5 6 4 5 4 4 4
4 4 5 5 7 5 7 10 8 3 2 3 2 3 4 4 6 6 8 7 7 7 7 7 7 8 8 7 6 5 5 6 5 5 6 8 9 9 7 6 6 6 5 5 5 4 4 4 4
5 8 8 5 6 5 7 7 6 3 4 5 5 4 4 4 4 5 7 7 8 8 7 7 6 7 7 6 5 5 5 5 5 5 5 7 8 8 7 6 6 6 5 5 6 5 4 4 4
9 7 7 7 5 6 6 6 5 3 4 6 6 5 5 5 5 4 5 6 6 6 6 6 6 5 5 4 3 3 3 3 3 4 5 6 6 7 7 5 6 6 5 5 5 5 5 4 4
5 6 6 6 4 6 8 8 7 6 4 6 6 5 6 5 3 2 3 4 4 4 4 4 5 4 4 3 3 3 4 3 3 4 5 6 6 7 6 5 6 6 6 7 7 5 5 5 3
4 5 5 3 4 6 7 10 8 8 8 7 7 7 6 4 2 1 2 2 4 4 4 4 3 3 3 3 3 3 3 3 3 3 4 5 6 6 6 7 6 6 6 7 7 6 4 4 5
5 6 6 4 3 4 3 6 10 9 7 7 7 7 6 7 6 4 3 3 3 3 2 3 3 3 2 2 2 1 1 0 1 2 3 4 4 5 6 6 6 6 6 7 8 8 8 6 5
5 5 6 4 5 4 6 5 8 9 9 10 10 8 7 6 6 5 5 4 3 2 2 2 2 2 1 2 2 3 3 3 3 3 3 3 3 4 4 5 6 6 6 7 7 8 7 7 6
4 3 4 4 4 1 3 3 8 4 11 14 12 10 8 7 7 6 5 5 4 3 3 3 3 3 2 2 2 3 2 2 1 1 2 2 2 3 3 4 4 5 5 6 7 7 7 7 7
3 3 4 3 2 4 6 6 8 6 11 9 9 9 8 8 7 6 5 5 4 3 4 4 4 4 3 3 2 2 2 1 0 1 1 2 2 2 3 3 3 4 4 5 6 6 6 6 7
4 5 3 3 4 6 5 6 11 8 8 10 11 10 9 8 8 7 6 5 4 4 4 4 4 4 4 4 4 2 1 1 1 1 1 1 1 1 3 2 2 3 3 4 4 4 4 5 6
6 5 5 6 6 3 4 9 9 6 5 5 8 10 9 8 7 7 7 6 5 4 4 4 4 4 4 4 4 3 3 2 1 1 1 1 1 1 2 2 2 2 2 2 2 2 3 3 4
6 4 3 3 2 2 6 6 6 2 3 5 8 9 9 8 8 7 6 6 5 5 4 4 5 5 4 4 4 4 4 3 3 3 3 2 2 2 3 3 3 3 3 3 2 1 1 1 1
3 6 4 4 4 4 4 5 5 4 6 6 8 8 7 7 7 6 6 5 5 5 4 5 5 5 4 5 4 4 4 4 4 4 4 4 4 4 4 4 4 4 5 4 4 3 3 4 4
5 4 4 4 3 4 3 7 5 9 10 10 8 8 8 8 7 6 5 5 5 5 5 5 5 5 4 4 4 5 5 5 5 5 5 4 5 5 5 5 6 6 6 6 5 5 5 6 6
4 5 6 5 4 4 3 8 5 6 7 8 7 7 7 7 7 6 6 6 5 5 5 5 4 4 4 4 5 5 5 5 6 6 6 5 6 6 6 6 7 7 7 7 7 7 7 7 7
Wind_Direction
322 338 71 59 59 62 236 243 238 281 270 245 165 118 109 99 144 162 112 139 137 144 151 150 148 145 144 141 138 135 132 129 125 122 118 116 116 118 120 118 115 113 109 104 99 96 94 95 97
325 22 64 66 102 171 250 246 247 248 235 223 146 106 90 82 100 110 120 146 142 145 149 150 147 144 143 140 139 136 133 129 125 121 120 120 121 123 126 123 119 116 111 107 104 101 99 99 99
319 59 93 93 149 191 227 240 243 283 273 226 97 78 100 130 145 132 147 143 139 141 145 150 146 144 143 141 139 137 133 129 126 123 123 125 127 128 129 124 120 117 116 114 111 108 105 103 100
86 65 71 113 214 223 227 260 310 315 314 320 96 69 52 343 175 135 138 139 135 134 139 149 146 145 143 141 140 138 135 132 129 128 127 128 130 130 129 125 123 122 123 121 118 116 113 108 103
77 102 112 200 232 246 252 271 294 287 282 313 91 98 40 344 100 128 137 139 138 135 141 150 146 145 144 144 142 140 138 136 135 135 135 134 133 132 132 131 130 131 131 129 127 126 123 117 107
98 105 155 211 233 256 265 266 294 281 278 300 103 105 89 24 110 135 140 140 140 141 144 151 147 146 146 147 145 141 140 141 141 142 143 139 137 137 138 139 140 139 140 139 137 136 134 130 118
144 147 186 198 224 250 252 256 250 261 276 257 144 113 124 103 125 136 137 136 139 142 143 147 149 150 149 148 146 145 144 144 146 145 142 139 138 141 144 147 148 148 148 147 147 147 149 149 138
156 145 180 192 209 237 248 264 260 245 252 250 131 139 168 177 126 122 128 134 139 143 148 148 151 152 149 148 149 147 147 146 146 140 136 136 139 142 145 149 154 155 155 156 157 160 165 168 171
125 146 197 195 199 230 249 257 269 255 239 347 99 167 163 137 119 122 128 135 142 149 153 154 154 152 149 150 154 149 148 148 144 140 141 135 134 139 145 152 157 159 162 164 168 173 178 183 209
148 193 209 196 191 210 257 251 261 287 266 41 52 76 113 120 126 136 146 151 155 159 163 161 158 156 153 157 149 147 147 147 144 148 148 143 147 157 158 164 165 166 168 173 179 184 187 184 248
177 201 198 213 200 198 253 273 271 221 237 197 166 157 144 131 133 142 152 158 163 165 167 169 166 162 160 152 153 153 147 151 157 162 164 159 157 165 162 161 167 168 171 175 189 189 194 205 230
184 205 180 211 209 205 229 256 274 237 233 216 172 159 152 151 154 155 158 160 161 165 171 173 170 167 167 160 164 164 161 166 173 180 177 167 167 174 175 177 177 175 174 181 189 196 216 229 238
207 191 193 216 220 214 224 238 237 243 253 160 140 145 158 164 167 168 161 159 158 165 171 173 171 170 170 166 171 173 176 180 184 184 187 180 177 181 182 187 188 190 186 191 200 209 220 234 243
196 203 218 207 219 212 197 242 224 225 198 98 127 149 167 171 170 166 168 172 173 171 171 169 169 171 170 173 176 177 184 186 187 191 193 188 186 185 186 191 196 199 199 200 205 211 217 226 229
165 178 230 222 201 205 168 232 230 218 155 121 145 160 165 176 172 176 181 182 182 179 175 171 171 170 172 176 182 181 185 185 189 196 198 194 190 190 190 194 199 205 203 203 209 219 222 231 229
154 174 204 222 190 194 168 221 233 227 200 231 215 193 187 193 190 187 183 182 180 176 180 182 179 175 178 178 181 181 185 187 192 195 197 199 195 192 193 198 203 202 199 200 206 210 216 228 229
163 187 196 212 196 176 178 221 244 236 213 234 233 224 217 214 211 204 191 183 179 178 181 188 188 184 187 185 183 183 182 188 193 194 197 202 201 197 197 204 204 196 198 201 207 204 200 215 224
179 173 177 196 203 175 197 229 254 264 223 232 238 231 226 220 221 205 191 183 173 172 173 178 184 186 187 185 185 189 194 197 195 197 203 205 206 204 203 207 205 196 200 206 205 206 206 207 208
152 151 173 203 207 179 213 235 247 263 257 242 239 228 225 225 232 195 174 164 151 147 153 166 173 184 177 175 186 194 208 208 208 210 210 209 210 208 207 212 208 204 209 212 208 206 211 216 181
185 173 183 218 210 188 219 241 246 243 242 232 223 221 214 209 201 150 118 117 126 136 138 141 153 163 176 191 191 191 195 209 216 219 222 219 218 217 214 213 214 211 215 217 214 207 207 209 181
208 191 185 197 194 185 175 261 249 248 241 241 229 210 199 189 182 165 128 115 114 117 129 133 142 146 163 174 156 132 127 122 224 234 237 235 231 230 227 223 220 218 216 221 220 212 209 217 207
214 205 198 190 153 203 180 237 259 230 236 234 230 214 200 185 167 156 143 127 118 121 109 108 120 117 118 131 136 155 182 208 223 233 243 254 242 241 239 234 229 226 223 224 225 219 216 213 216
193 195 191 177 155 170 187 204 273 228 225 229 223 213 200 181 164 155 147 137 121 104 89 81 85 79 77 94 133 154 182 217 247 260 264 262 264 259 256 246 241 239 235 234 233 226 221 217 218
156 104 86 69 101 220 208 191 264 227 217 218 210 202 187 170 155 142 130 119 103 86 77 76 80 66 58 73 86 127 160 185 206 276 272 273 275 278 282 270 256 251 247 245 242 237 230 227 226
154 136 136 162 193 232 194 200 246 244 229 210 195 182 170 159 149 142 135 124 111 93 80 78 81 63 51 59 59 62 88 123 166 238 262 293 315 315 313 303 281 271 264 258 251 241 239 234 231
180 167 167 175 189 233 193 222 250 272 257 194 164 155 150 151 150 146 142 133 121 106 92 87 84 69 54 59 56 48 47 56 52 42 44 30 333 310 327 336 335 320 304 288 266 248 248 245 241
153 185 177 128 146 191 237 262 297 11 92 125 137 142 151 154 151 146 140 133 125 112 99 98 93 76 58 56 63 54 45 50 52 47 43 35 12 6 10 14 19 13 8 359 351 353 321 325 334
157 152 136 144 163 218 256 246 237 210 186 168 160 157 156 150 145 143 141 138 129 118 103 90 87 81 64 55 55 62 48 48 51 55 48 41 30 29 32 32 34 33 31 33 44 43 37 56 48
161 164 166 157 181 177 234 262 227 207 194 181 177 169 163 160 157 153 147 138 127 116 107 98 88 80 68 62 61 59 50 49 53 53 45 43 40 39 42 42 46 44 40 38 50 53 54 65 61
177 182 163 165 207 190 197 266 288 226 187 168 169 170 166 161 158 153 146 137 130 124 116 108 100 91 82 77 72 65 58 56 56 52 44 47 49 46 47 50 54 52 48 47 54 58 56 64 66